NOAA 17 DEB, 48167

Orbit data source: Space-Track

NOAA 17 DEB, 48167 is space debris in SSO originally from a launch on Mon, 24 Jun 2002 UTC launched from the Air Force Western Test Range (AFWTR). Debris objects in space refer to the collection of defunct objects orbiting the Earth. Examples of debris include non-operational satellites, rocket bodies, and fragments generated from explosions, collisions, or faulty payload assembly.

Loading next visibility...
Identifier
48167, 2002-032H
Orbit
SSO
Country
Flag of USUS
Related business
Manufacturer
Unknown
Mission
Spacecraft
Bus & Motor
Unknown
Mass
Unknown
Launch date (UTC)
2002-06-24 (23 years ago)
Launch vehicle
Unknown
Launch site
Air Force Western Test Range (AFWTR)
Object type
Payload
Rocket body
Debris
Shape & HBR
Unknown shape, 0.1 m
Radar Cross Section
Small (<0.1 m²)

Expand to show TLE details & history
Last TLE update: 2 days ago

TLE from 2 days ago
0 NOAA 17 DEB
1 48167U 02032H   25348.44576660  .00016642  00000-0  31240-2 0  9994
2 48167  98.7208 339.7934 0024980 310.2024  49.6991 14.64579637249493
Epoch: 2025-12-14T10:41Z
TLE epoch observation values (Epoch: 2025-12-14T10:41:54.234Z)
Latitude
0.00003°
Longitude
95.95885°
Altitude
670.022 km
Speed
7.528 km/s
True Right ascension
22h 39m 10s
True Declination
0° 00' 00"
Sunlit
Object was in daylight at epoch
Visualization orbit readout
Latitude
Unknown
Longitude
Unknown
Altitude
Unknown
Speed
Unknown
Apparent Right ascension
Unknown
Apparent Declination
Unknown
Sunlit
N/A
Visualization observer readout
Local Sidereal Time
11:31:50
Azimuth
Unknown
Elevation
Unknown
Doppler factor
Unknown
Orbital elements
Apogee altitude
693.145 km
Perigee altitude
657.905 km
Semi-major axis
7,053.662 km
Eccentricity
0.0025
Inclination
98.7208°
RAAN
339.7934°
Arg. of periapsis
310.2024°
True anomaly
49.91785°
Mean anomaly
49.6991°
Eccentric anomaly
49.80843°
Mean motion
3.66371 °/min
Orbital period
98.26 mins
BSTAR
0.003124
Loading maneuver chart data...
Computing Atmospheric mass density...
Loading historical data...
Loading historical data...
Loading historical data...
Loading historical data...
Loading historical data...
Loading historical data...
Loading historical data...

Documentation

Showing up to 5 results
|